RISAT-2BR1 (44857 NORAD) Tracking and Keplerian Element Data

This shows tracking and keplerian element data for the satellite.

Feedback or suggestion? Click here.




ElementValue
Catalog44857
NameRISAT-2BR1
Epoch Orbit1703
Epoch Day94.12342671
Epoch Year2020
RAAN184.8308
Inclination36.9622
Eccentricity0.0005202
Argument of Perigee125.8184
Mean Anonmoly234.3041
Mean Motion14.97717802
Decay Rate2.86E-06
L11 44857U 19089F 20094.12342671 .00000286 00000-0 30474-4 0 9994
L22 44857 36.9622 184.8308 0005202 125.8184 234.3041 14.97717802 17032

Live tracking and technical data element details for RISAT-2BR1 (NORAD 44857). RISAT-2BR1 can be tracked NOW for your location showing map with azimuth and elevation plus other details from your city location.

Track the satellite on the map from your city or location and see movement details for azimuth, elevation, latitude, longitude, range, height, and movement on the map or in text.







IsCatalogInMostPopularTable: catalog: 44857, numindb: 51
Update: records affected: 1



GetName: 44857 RISAT-2BR1

Hit Count: updated at: Fri, 10 Apr 2020 19:43:03 GMT